This is the latest recevied weather packets stored in our database for station/object KD9DOE. If no packets are shown the sender has not sent any weather packets the latest 10 day(s).
| Time | Temp. | Humidity | Pressure | Rain* | Wind** | Luminosity | Snow |
|---|---|---|---|---|---|---|---|
| 1777859748 | 15° C | 52% | 1004.4 hPa | 0 mm | - | 0 W/m² | - |
| 1777859444 | 15° C | 51% | 1004.1 hPa | 0 mm | - | 0 W/m² | - |
| 1777859140 | 15° C | 52% | 1004.3 hPa | 0 mm | - | 0 W/m² | - |
| 1777858838 | 15.56° C | 52% | 1004.2 hPa | 0 mm | - | 0 W/m² | - |
| 1777858535 | 15.56° C | 50% | 1004.2 hPa | 0 mm | - | 0 W/m² | - |
| 1777858232 | 15.56° C | 49% | 1004.2 hPa | 0 mm | - | 0 W/m² | - |
| 1777857930 | 16.11° C | 49% | 1004.1 hPa | 0 mm | - | 0 W/m² | - |
| 1777857627 | 16.67° C | 47% | 1004 hPa | 0 mm | - | 0 W/m² | - |
| 1777857324 | 16.67° C | 45% | 1004.1 hPa | 0 mm | - | 0 W/m² | - |
| 1777857020 | 17.22° C | 44% | 1004.2 hPa | 0 mm | - | 1 W/m² | - |
| 1777856716 | 17.78° C | 43% | 1004.4 hPa | 0 mm | - | 1 W/m² | - |
| 1777856412 | 17.78° C | 42% | 1004.2 hPa | 0 mm | - | 2 W/m² | - |
| 1777856109 | 18.33° C | 41% | 1004.1 hPa | 0 mm | - | 4 W/m² | - |
| 1777855806 | 18.89° C | 39% | 1004 hPa | 0 mm | - | 5 W/m² | - |
| 1777855504 | 19.44° C | 37% | 1003.9 hPa | 0 mm | - | 7 W/m² | - |
| 1777855201 | 19.44° C | 36% | 1004 hPa | 0 mm | - | 9 W/m² | - |
| 1777854896 | 20° C | 38% | 1003.9 hPa | 0 mm | - | 11 W/m² | - |
| 1777854594 | 20° C | 37% | 1004 hPa | 0 mm | - | 13 W/m² | - |
| 1777854290 | 20.56° C | 36% | 1004 hPa | 0 mm | - | 15 W/m² | - |
| 1777853988 | 20.56° C | 34% | 1004 hPa | 0 mm | - | 17 W/m² | - |
| 1777853685 | 21.11° C | 33% | 1003.8 hPa | 0 mm | - | 19 W/m² | - |
| 1777853382 | 21.11° C | 32% | 1003.7 hPa | 0 mm | - | 20 W/m² | - |
| 1777853079 | 21.11° C | 33% | 1003.7 hPa | 0 mm | - | 22 W/m² | - |
| 1777852776 | 21.11° C | 32% | 1003.6 hPa | 0 mm | - | 23 W/m² | - |
| 1777852474 | 21.11° C | 32% | 1003.7 hPa | 0 mm | - | 24 W/m² | - |
* Rain latest hour (hover to see other rain measurements)
** Current wind speed in m/s (hover to see current wind gust speed)